Miscellaneous Local Product
Issued by NWS North Platte, NE

Home | Current Version | Previous Version | Graphics & Text | Print | Product List | Glossary On
Versions: 1 2 3 4 5 6 7 8 9 10 11 12 13 14 15 16 17 18 19 20 21 22 23 24 25 26 27 28 29 30 31 32 33 34 35 36 37 38 39 40 41 42 43 44 45 46 47 48 49 50
000
AXUS43 KLBF 292210
MISLBF


WESTERN AND NORTH CENTRAL NEBRASKA HOURLY WEATHER ROUNDUP
NATIONAL WEATHER SERVICE NORTH PLATTE NE
500 PM CDT FRI MAY 29 2015

***STATIONS NOT REPORTING VARIABLES SUCH AS SKY/WEATHER OR
PRESSURE ARE PROVIDED BY THE NEBRASKA DEPARTMENT OF
ROADS...RAWS...AND APRS NETWORKS...AND ARE NOT UNDER
NATIONAL WEATHER SERVICE QUALITY CONTROL***

...OBSERVATIONS IN AND NEAR THE EASTERN PANHANDLE OF NEBRASKA...

CITY           SKY/WX    TMP DP  RH WIND       PRES   REMARKS
PINE RIDGE     LGT RAIN  47  43  86 N10       30.28R
CHADRON        LGT RAIN  48  45  89 NE14      30.29R
ALLIANCE       LGT RAIN  47  45  93 N17       30.25S FOG
SIDNEY         CLOUDY    52  47  83 N17       30.23R
WHITECLAY        N/A     43  41  93 E12         N/A
BIG SPRINGS      N/A     56  51  83 NW6         N/A
$$

...OBSERVATIONS IN NORTH CENTRAL NEBRASKA...

CITY           SKY/WX    TMP DP  RH WIND       PRES   REMARKS
VALENTINE      LGT RAIN  49  47  93 N17G25    30.21R
THEDFORD       HVY RAIN  51  49  95 N14G24    30.20R
AINSWORTH      LGT RAIN  50  49  96 N20G28    30.17R
O`NEILL        LGT RAIN  54  53  97 N23G29    30.09R
ORD            CLOUDY    58  50  75 N21G32    30.06R
BROKEN BOW     CLOUDY    61  51  70 N28G37    30.09R
VALENTINE NWR    N/A     49  49  99 N16G26      N/A
SPRINGVIEW       N/A     50  47  90 NW12G22     N/A
HALSEY           N/A     52  50  93 NW10G25     N/A
ROSE             N/A     50  50 100 SW17        N/A
NEWPORT          N/A     50  50  99 W17         N/A
SARGENT          N/A     55  52  89 N3G20       N/A
COMSTOCK         N/A     65  56  73 NE20        N/A
EWING            N/A     53  51  93 N13G23      N/A
$$

...OBSERVATIONS IN SOUTHWEST NEBRASKA AND FAR NORTHEAST COLORADO...

CITY           SKY/WX    TMP DP  RH WIND       PRES   REMARKS
WRAY           LGT RAIN  59  52  76 N15       30.16R
HOLYOKE        MOCLDY    59  48  67 N23       30.19R
IMPERIAL       CLOUDY    60  52  74 N22G28    30.14R
OGALLALA       CLOUDY    53  50  91 N16G25    30.15R
NORTH PLATTE   LGT RAIN  55  51  86 NW15G23   30.17R
MCCOOK         LGT RAIN  63  55  75 N36G47    30.04R
LEXINGTON      LGT RAIN  61  56  84 N23G30    30.06R
PAXTON           N/A     53  51  94 N21         N/A
GOTHENBURG       N/A     58  51  77 NW17        N/A
CALLAWAY         N/A     57  54  89 N22         N/A
$$

...NORTH PLATTE AREA...

CITY           SKY/WX    TMP DP  RH WIND       PRES   REMARKS
AIRPORT        LGT RAIN  55  51  86 NW15G23   30.17R
$$

...SOME WEATHER OBSERVATIONS FROM AROUND THE REGION...

CITY           SKY/WX    TMP DP  RH WIND       PRES   REMARKS
DENVER         PTSUNNY   63  43  48 N21G28    30.21R
LARAMIE        LGT RAIN  50  41  71 N16       30.29S
CHEYENNE       PTSUNNY   54  42  64 N17G31    30.26R
SCOTTSBLUFF    LGT RAIN  51  48  89 N17       30.26R
RAPID CITY     PTSUNNY   57  43  59 NE18G30   30.26S
PIERRE         CLOUDY    53  42  66 N22       30.20S
WINNER         CLOUDY    51  46  83 N18       30.19R
SIOUX FALLS    CLOUDY    53  49  86 N18G29    30.01R
OMAHA          CLOUDY    78  60  53 S12       29.88F
GRAND ISLAND   MOSUNNY   70  56  61 N23       29.99R
KANSAS CITY    CLOUDY    69  67  93 S8        29.96S
WICHITA        PTSUNNY   78  61  55 CALM      29.93F
HAYS           MOSUNNY   79  55  44 NW8       29.97F
LIBERAL        MOSUNNY   75  55  50 NE13      30.04F
GOODLAND       PTSUNNY   62  51  67 N35G44    30.11R
$$



USA.gov is the U.S. government's official web portal to all federal, state and local government web resources and services.